Weather Service Report


043 
ASUS43 KFSD 301010
RWRFSD

WEATHER ROUNDUP FOR SE SOUTH DAKOTA/SW MINNESOTA/NW IOWA
NATIONAL WEATHER SERVICE SIOUX FALLS SD
500 AM CDT SUN AUG 30 2015

NOTE: "FAIR" INDICATES FEW OR NO CLOUDS BELOW 12,000 FEET WITH NO
SIGNIFICANT WEATHER AND OR OBSTRUCTIONS TO VISIBILITY.


SDZ038>040-050-052>070-301100-
SOUTHEAST SOUTH DAKOTA
  
CITY           SKY/WX    TMP DP  RH WIND       PRES   REMARKS
BROOKINGS      CLOUDY    63  57  82 S12       29.98S                  
CHAMBERLAIN    CLEAR     66  61  83 S5        29.90S                  
HURON          CLEAR     65  63  93 S10       29.89S                  
MADISON        CLOUDY    59  59 100 S10       29.97S                  
MITCHELL       CLEAR     64  63  96 S9        29.92F                  
SIOUX FALLS    CLOUDY    62  60  93 S13       29.98F FOG              
WINNER         FAIR      71  58  63 S20       29.90S                  
YANKTON        CLOUDY    64  63  94 S6        29.96S                  
$$

MNZ071-072-080-081-089-090-097-098-301100-
SOUTHWEST MINNESOTA
  
CITY           SKY/WX    TMP DP  RH WIND       PRES   REMARKS
FAIRMONT       CLOUDY    63  55  77 S10       30.02S                  
JACKSON        CLOUDY    61  61 100 SW7       30.03S FOG              
LUVERNE        CLOUDY    63  61  94 S9        30.01S FOG              
MARSHALL       PTCLDY    63  55  77 S8        29.96F                  
MONTEVIDEO     CLEAR     61  61 100 S8        29.95S FOG              
PIPESTONE      CLOUDY    63  61  94 SW13      29.99S FOG              
REDWOOD FALLS  CLOUDY    63  61  93 S12       29.97S                  
TRACY          MOCLDY    63  61  94 S8        29.98S                  
WINDOM         CLOUDY    61  59  94 S13       30.01S                  
WORTHINGTON    CLOUDY    61  57  88 SW12G17   30.01S                  
$$

IAZ001>003-012>014-020>022-031-032-NEZ013-014-SDZ071-301100-
NORTHWEST IOWA
  
CITY           SKY/WX    TMP DP  RH WIND       PRES   REMARKS
CHEROKEE       CLOUDY    63  63  98 S12       30.03S                  
DENISON        CLOUDY    64  63  94 S5        30.02S                  
ESTHERVILLE    CLOUDY    60  60 100 SW9       30.03R                  
LE MARS        CLOUDY    64  63  94 S13       30.02S                  
ORANGE CITY    CLOUDY    63  63 100 S10G17    30.02S FOG              
SHELDON        CLOUDY    63  61  94 S10       30.01S                  
SIOUX CITY     NOT AVBL                                               
SPENCER        CLOUDY    62  59  90 S9        30.03S                  
STORM LAKE     CLOUDY   N/A N/A N/A S9        30.05S                  
$$
 
ABBREVIATIONS USED IN REMARKS
   TC - TEMPERATURE IN CELSIUS
  WCI - WIND CHILL INDEX
   HX - HEAT INDEX
  VSB - VISIBILITY



045 
ASUS43 KFSD 301010
RWRSD 

WEATHER ROUNDUP FOR SOUTH DAKOTA
NATIONAL WEATHER SERVICE SIOUX FALLS SD
500 AM CDT SUN AUG 30 2015

NOTE: "FAIR" INDICATES FEW OR NO CLOUDS BELOW 12,000 FEET WITH NO
SIGNIFICANT WEATHER AND/OR OBSTRUCTIONS TO VISIBILITY.


SDZ001>005-009-010-012>017-301100-
NORTHWEST AND NORTH CENTRAL SOUTH DAKOTA
  
CITY           SKY/WX    TMP DP  RH WIND       PRES   REMARKS
BUFFALO          N/A     67  48  50 SE3       29.73F                  
FAITH            N/A     61  49  64 S15       29.80                   
MOBRIDGE       MOCLDY    67  64  90 SE9       29.79S                  
$$
 
SDZ012>016-024>037-041>051-057-063-072>074-301100-
SOUTHWEST AND SOUTH CENTRAL SOUTH DAKOTA
  
CITY           SKY/WX    TMP DP  RH WIND       PRES   REMARKS
RAPID CTY ARPT PTCLDY    63  47  55 SE13      29.86F                  
PIERRE         CLEAR     67  57  70 VRB3      29.83S                  
CUSTER         MOCLDY    66  38  35 W6        30.05F                  
ELLSWORTH AFB  PTCLDY    69  46  43 S9        29.84F                  
PHILIP         PTCLDY    70  51  51 VRB3      29.83F                  
PINE RIDGE     CLEAR     66  44  45 S10       29.93F                  
WINNER         FAIR      71  58  63 S20       29.90S                  
$$
 
SDZ004>011-016>023-039-040-301100-
NORTHEAST SOUTH DAKOTA
  
CITY           SKY/WX    TMP DP  RH WIND       PRES   REMARKS
ABERDEEN       CLEAR     65  63  93 S9        29.85S                  
WATERTOWN      CLEAR     62  60  93 S12       29.93R FOG              
BROOKINGS      CLOUDY    63  57  82 S12       29.98S                  
SISSETON         N/A     62  60  93 S6        29.85S                  
$$
 
SDZ017-020-022-023-036>040-048>070-301100-
SOUTHEAST SOUTH DAKOTA
  
CITY           SKY/WX    TMP DP  RH WIND       PRES   REMARKS
SIOUX FALLS    CLOUDY    62  60  93 S13       29.98F FOG              
HURON          CLEAR     65  63  93 S10       29.89S                  
CHAMBERLAIN    CLEAR     66  61  83 S5        29.90S                  
MITCHELL       CLEAR     64  63  96 S9        29.92F                  
YANKTON        CLOUDY    64  63  94 S6        29.96S                  
$$
 
ABBREVIATIONS USED IN REMARKS
   TC - TEMPERATURE IN CELSIUS
  WCI - WIND CHILL INDEX
   HX - HEAT INDEX
  VSB - VISIBILITY


Return to Home page


Western Regional Climate Center, wrcc@dri.edu